Date String (YYYY-MM-DD hh:mm:ss) UTC,Instrument flags,absolute air pressure of the measurement (hPa),sample flow rate (lpm),inlet stack bypass flow (lpm),air temperature of the measurement (°C),ambient temperature measured by the external sensor (°C),aerosol sample conditioner tube jacket temperature (°C),OPC LED temperature (°C),internal box temperature (°C),relative humidity of the measurement (%),span deviation,mass concentration of particles derived from Lorenz-Mie calculation of OPC scattering (μg/m³),mass concentration of particles derived from Lorenz-Mie calculation of OPC scattering (μg/m³),mass concentration of particles derived from Lorenz-Mie calculation of OPC scattering (μg/m³)
DateTimeUTC,F1_M11,P_M11,Q1_M11,Q2_M11,T1_M11,T2_M11,T3_M11,T4_M11,T5_M11,U1_M11,ZSPAN_M11,X0_M11,X2_M11,X1_M11
2024-06-03 10:00:00,SystemResetWarning,0824.9,5.00,000.00,031.2,030.4,000.0,039.6,032.9,014.5,0000.0,0020.83,0005.47,0003.78
2024-06-03 10:01:00,SystemResetWarning,0824.9,5.00,000.00,031.2,030.4,000.0,039.6,032.9,014.7,0000.0,0021.38,0005.49,0003.78
2024-06-03 10:02:00,SystemResetWarning,0824.9,4.99,000.00,031.2,030.4,000.0,039.7,032.9,014.8,0000.0,0021.34,0005.45,0003.78
2024-06-03 10:03:00,SystemResetWarning,0824.9,5.00,000.00,031.2,030.5,000.0,039.6,032.9,014.8,0000.0,0021.64,0005.42,0003.77
2024-06-03 10:04:00,SystemResetWarning,0824.9,5.00,000.00,031.2,030.5,000.0,039.7,032.9,014.8,0000.0,0020.55,0005.36,0003.76
2024-06-03 10:05:00,SystemResetWarning,0824.9,5.00,000.00,031.2,030.5,000.0,039.6,032.9,014.8,0000.0,0021.91,0005.35,0003.74
2024-06-03 10:06:00,SystemResetWarning,0824.9,5.00,000.00,031.2,030.5,000.0,039.6,032.9,014.8,0000.0,0022.84,0005.39,0003.75
2024-06-03 10:07:00,SystemResetWarning,0824.9,5.00,000.00,031.2,030.5,000.0,039.6,032.9,014.8,0000.0,0021.38,0005.39,0003.75
2024-06-03 10:08:00,SystemResetWarning,0824.9,5.00,000.00,031.2,030.4,000.0,039.7,032.9,014.8,0000.0,0019.68,0005.40,0003.74
2024-06-03 10:09:00,SystemResetWarning,0824.8,5.00,000.00,031.2,030.5,000.0,039.7,032.9,014.8,0000.0,0019.92,0005.43,0003.75
2024-06-03 10:10:00,SystemResetWarning,0824.9,5.00,000.00,031.2,030.5,000.0,039.7,032.9,014.8,0000.0,0019.86,0005.47,0003.75
2024-06-03 10:11:00,SystemResetWarning,0824.9,5.01,000.00,031.2,030.5,000.0,039.7,032.9,015.0,0000.0,0019.66,0005.44,0003.75
2024-06-03 10:12:00,SystemResetWarning,0824.9,5.00,000.00,031.2,030.5,000.0,039.7,032.9,015.1,0000.0,0020.00,0005.46,0003.75
2024-06-03 10:13:00,SystemResetWarning,0824.9,4.99,000.00,031.2,030.5,000.0,039.7,032.9,015.0,0000.0,0020.41,0005.51,0003.75
2024-06-03 10:14:00,SystemResetWarning,0824.9,4.99,000.00,031.2,030.5,000.0,039.7,032.9,015.0,0000.0,0020.10,0005.49,0003.76
2024-06-03 10:15:00,SystemResetWarning,0824.8,5.00,000.00,031.2,030.5,000.0,039.7,032.9,015.1,0000.0,0020.89,0005.54,0003.77
2024-06-03 10:16:00,SystemResetWarning,0824.8,5.00,000.00,031.2,030.5,000.0,039.7,032.9,015.2,0000.0,0019.87,0005.54,0003.79
2024-06-03 10:17:00,SystemResetWarning,0824.7,5.01,000.00,031.3,030.5,000.0,039.7,032.9,015.2,0000.0,0018.81,0005.55,0003.80
2024-06-03 10:18:00,SystemResetWarning,0824.7,5.01,000.00,031.3,030.5,000.0,039.7,033.0,015.1,0000.0,0018.84,0005.56,0003.80
2024-06-03 10:19:00,SystemResetWarning,0824.7,5.00,000.00,031.3,030.5,000.0,039.7,032.9,015.3,0000.0,0019.17,0005.51,0003.80
2024-06-03 10:20:00,SystemResetWarning,0824.7,4.99,000.00,031.3,030.5,000.0,039.7,032.9,015.4,0000.0,0020.34,0005.52,0003.81
2024-06-03 10:21:00,SystemResetWarning,0824.7,4.99,000.00,031.3,030.5,000.0,039.7,032.9,015.3,0000.0,0020.83,0005.60,0003.82
2024-06-03 10:22:00,SystemResetWarning,0824.7,5.00,000.00,031.3,030.5,000.0,039.7,033.0,015.3,0000.0,0020.60,0005.68,0003.84
2024-06-03 10:23:00,SystemResetWarning,0824.8,5.01,000.00,031.3,030.5,000.0,039.7,033.0,015.2,0000.0,0020.54,0005.70,0003.86
2024-06-03 10:24:00,SystemResetWarning,0824.7,5.00,000.00,031.3,030.5,000.0,039.7,033.0,015.1,0000.0,0020.99,0005.66,0003.87
2024-06-03 10:25:00,SystemResetWarning,0824.8,5.00,000.00,031.3,030.5,000.0,039.7,032.9,015.0,0000.0,0021.35,0005.68,0003.88
2024-06-03 10:26:00,SystemResetWarning,0824.8,5.00,000.00,031.3,030.5,000.0,039.7,032.9,014.9,0000.0,0020.77,0005.62,0003.86
2024-06-03 10:27:00,SystemResetWarning,0824.7,4.99,000.00,031.2,030.4,000.0,039.7,032.9,014.9,0000.0,0020.20,0005.59,0003.85
2024-06-03 10:28:00,SystemResetWarning,0824.7,4.99,000.00,031.2,030.4,000.0,039.7,032.9,014.8,0000.0,0019.53,0005.46,0003.83
2024-06-03 10:29:00,SystemResetWarning,0824.7,5.00,000.00,031.2,030.4,000.0,039.7,032.9,014.6,0000.0,0019.18,0005.40,0003.82
2024-06-03 10:30:00,SystemResetWarning,0824.7,5.00,000.00,031.2,030.4,000.0,039.7,032.9,014.9,0000.0,0018.40,0005.35,0003.80
2024-06-03 10:31:00,SystemResetWarning,0824.7,5.00,000.00,031.2,030.4,000.0,039.7,032.9,014.7,0000.0,0017.69,0005.31,0003.78
2024-06-03 10:32:00,SystemResetWarning,0824.7,5.01,000.00,031.2,030.4,000.0,039.7,032.9,015.2,0000.0,0017.75,0005.18,0003.76
2024-06-03 10:33:00,SystemResetWarning,0824.7,5.01,000.00,031.2,030.4,000.0,039.7,032.9,015.6,0000.0,0017.84,0005.03,0003.75
2024-06-03 10:34:00,SystemResetWarning,0824.7,5.00,000.00,031.2,030.3,000.0,039.7,032.8,015.4,0000.0,0017.79,0004.95,0003.75
2024-06-03 10:35:00,SystemResetWarning,0824.7,5.00,000.00,031.2,030.3,000.0,039.7,032.8,015.2,0000.0,0016.72,0004.95,0003.75
2024-06-03 10:36:00,SystemResetWarning,0824.7,4.99,000.00,031.2,030.3,000.0,039.7,032.8,015.3,0000.0,0017.23,0005.00,0003.76
2024-06-03 10:37:00,SystemResetWarning,0824.7,4.99,000.00,031.1,030.3,000.0,039.7,032.8,015.2,0000.0,0016.94,0005.01,0003.77
2024-06-03 10:38:00,SystemResetWarning,0824.7,5.01,000.00,031.1,030.3,000.0,039.7,032.8,015.1,0000.0,0016.97,0005.02,0003.78
2024-06-03 10:39:00,SystemResetWarning,0824.7,5.01,000.00,031.1,030.2,000.0,039.7,032.8,015.2,0000.0,0017.31,0005.07,0003.81
2024-06-03 10:40:00,SystemResetWarning,0824.7,5.01,000.00,031.1,030.2,000.0,039.7,032.8,015.2,0000.0,0017.34,0005.10,0003.84
2024-06-03 10:41:00,SystemResetWarning,0824.7,5.00,000.00,031.1,030.2,000.0,039.7,032.8,015.2,0000.0,0018.55,0005.15,0003.88
2024-06-03 10:42:00,SystemResetWarning,0824.7,5.00,000.00,031.1,030.2,000.0,039.6,032.8,015.3,0000.0,0017.89,0005.18,0003.89
2024-06-03 10:43:00,SystemResetWarning,0824.7,4.99,000.00,031.1,030.2,000.0,039.6,032.8,015.3,0000.0,0016.78,0005.24,0003.92
2024-06-03 10:44:00,SystemResetWarning,0824.7,5.00,000.00,031.1,030.2,000.0,039.6,032.7,015.4,0000.0,0017.27,0005.32,0003.94
2024-06-03 10:45:00,SystemResetWarning,0824.7,5.00,000.00,031.1,030.2,000.0,039.6,032.7,015.3,0000.0,0016.45,0005.33,0003.94
2024-06-03 10:46:00,SystemResetWarning,0824.7,5.00,000.00,031.1,030.2,000.0,039.6,032.7,015.1,0000.0,0016.59,0005.29,0003.94
2024-06-03 10:47:00,SystemResetWarning,0824.7,5.01,000.00,031.1,030.2,000.0,039.6,032.7,015.1,0000.0,0015.66,0005.23,0003.94
2024-06-03 10:48:00,SystemResetWarning,0824.7,5.01,000.00,031.1,030.2,000.0,039.6,032.7,015.2,0000.0,0016.38,0005.28,0003.95
2024-06-03 10:49:00,SystemResetWarning,0824.7,4.99,000.00,031.1,030.2,000.0,039.6,032.7,015.1,0000.0,0016.57,0005.30,0003.96
2024-06-03 10:50:00,SystemResetWarning,0824.6,5.00,000.00,031.1,030.2,000.0,039.6,032.7,015.1,0000.0,0017.02,0005.30,0003.96
2024-06-03 10:51:00,SystemResetWarning,0824.5,4.99,000.00,031.1,030.2,000.0,039.6,032.7,015.1,0000.0,0017.32,0005.30,0003.96
2024-06-03 10:52:00,SystemResetWarning,0824.6,4.99,000.00,031.1,030.2,000.0,039.6,032.7,015.1,0000.0,0016.64,0005.34,0003.96
2024-06-03 10:53:00,SystemResetWarning,0824.6,5.00,000.00,031.1,030.2,000.0,039.6,032.7,015.1,0000.0,0016.01,0005.38,0003.96
2024-06-03 10:54:00,SystemResetWarning,0824.7,5.01,000.00,031.1,030.2,000.0,039.6,032.7,015.2,0000.0,0016.48,0005.35,0003.95
2024-06-03 10:55:00,SystemResetWarning,0824.7,5.01,000.00,031.0,030.2,000.0,039.6,032.7,015.2,0000.0,0016.07,0005.36,0003.96
2024-06-03 10:56:00,SystemResetWarning,0824.7,5.00,000.00,031.0,030.2,000.0,039.6,032.7,015.4,0000.0,0015.62,0005.40,0003.97
2024-06-03 10:57:00,SystemResetWarning,0824.7,5.00,000.00,031.0,030.2,000.0,039.6,032.7,015.4,0000.0,0015.42,0005.43,0003.97
2024-06-03 10:58:00,SystemResetWarning,0824.7,4.99,000.00,031.0,030.2,000.0,039.6,032.7,015.4,0000.0,0014.83,0005.45,0003.99
2024-06-03 10:59:00,SystemResetWarning,0824.7,5.00,000.00,031.0,030.2,000.0,039.6,032.7,015.4,0000.0,0014.74,0005.40,0004.00
